Dewpoint
60 61 60 59 57 56 56 56 57 58 58 59 59 57 55 54 51 50 49 48 48 47 47 47 49 50 50 47 46 49 48 48 52 53 51 50 48 47 44 42 39 39 39 38 37 36 35
60 60 59 58 57 56 57 58 58 59 58 57 56 54 52 50 49 47 46 45 45 45 45 45 46 50 46 21 44 45 47 47 48 48 48 49 50 49 46 45 42 40 41 42 41 39 37
59 59 58 57 57 57 59 59 58 58 56 54 53 51 50 48 46 44 44 44 43 43 44 44 44 48 42 18 42 44 45 39 49 35 35 43 48 50 48 44 46 45 44 44 44 44 42
58 58 58 57 57 58 59 58 57 55 54 52 51 48 47 45 42 40 39 41 43 45 45 45 46 47 11 39 40 39 32 28 29 28 28 45 47 46 45 45 43 41 40 38 38 38 42
58 58 58 58 58 59 57 56 55 54 52 50 48 46 43 40 39 39 42 45 46 46 45 47 44 38 9 36 29 34 30 27 27 28 33 33 30 37 42 40 36 34 32 32 33 34 34
57 57 58 58 58 57 55 54 53 52 49 47 44 41 40 40 41 44 45 45 47 46 46 46 44 32 23 21 32 29 28 28 25 29 26 30 32 33 32 33 25 26 30 31 30 32 35
57 58 58 58 57 55 54 53 51 49 46 42 41 42 42 40 43 43 40 35 22 22 26 22 23 25 24 26 28 24 26 28 31 29 13 30 23 12 14 19 21 25 24 23 22 22 22
57 57 58 56 55 54 53 50 49 46 42 42 43 41 41 43 42 41 38 30 29 27 11 25 31 30 30 31 24 21 20 15 26 16 27 20 13 17 19 22 24 23 24 23 23 20 17
57 57 56 55 54 52 51 48 45 43 42 43 40 40 42 42 38 37 38 39 41 32 11 10 23 26 22 28 26 20 16 17 17 22 15 13 8 9 15 20 22 23 24 21 21 22 26
57 56 55 54 52 51 48 44 42 42 41 40 41 42 41 39 32 35 34 38 42 28 2 5 18 23 18 20 16 18 15 16 21 15 14 17 17 16 15 16 16 20 21 22 22 23 21
55 54 53 52 50 48 45 44 43 40 41 42 43 42 37 31 34 33 35 39 38 19 -32 6 16 21 20 16 15 12 16 17 14 13 15 11 15 18 19 18 18 20 19 20 23 23 24
54 52 51 50 48 45 45 44 42 43 42 42 42 41 38 34 35 36 39 34 20 -7 -28 11 19 17 18 22 14 16 17 21 21 19 18 17 19 19 19 20 21 24 24 24 26 26 20
52 51 49 47 45 45 44 43 44 43 43 43 42 40 35 34 31 37 32 22 -4 -13 6 15 14 18 19 16 13 15 15 13 15 17 14 17 14 15 19 19 19 24 22 17 15 20 15
50 49 47 46 46 45 43 44 44 44 43 44 43 40 40 39 38 31 21 4 -12 6 14 18 18 18 12 16 15 17 12 12 21 22 19 15 11 16 17 22 23 24 25 20 14 13 15
48 47 47 46 44 43 44 44 44 43 43 41 37 36 37 39 35 25 13 1 4 11 18 17 17 14 12 11 17 15 13 16 19 23 16 16 12 19 22 20 22 26 24 29 23 23 21
47 47 45 44 44 44 44 44 43 41 42 38 35 35 36 38 34 22 13 12 15 17 20 21 16 17 14 13 15 16 15 16 17 24 25 20 16 20 18 25 32 26 26 21 20 16 14
45 44 43 43 44 44 44 42 40 41 42 36 31 28 35 36 29 21 12 15 18 21 21 20 18 17 17 16 15 14 16 16 21 17 20 22 23 17 15 18 22 18 21 25 24 21 18
44 44 44 44 44 44 42 41 42 43 40 30 30 21 35 29 17 19 18 21 24 21 22 20 22 20 18 17 15 14 14 15 18 21 18 23 24 16 12 15 21 20 24 25 19 19 25
44 44 44 44 43 42 41 42 43 43 36 30 30 32 34 24 9 18 22 21 22 20 20 20 19 20 21 18 16 17 16 19 20 19 19 25 18 12 8 11 19 21 27 28 27 28 23
44 44 43 43 42 42 42 42 44 42 37 29 26 20 27 27 25 21 20 20 19 23 21 22 21 22 19 18 19 18 17 18 20 20 22 21 21 15 11 13 18 21 25 25 24 22 23
43 43 43 43 42 42 41 42 43 41 36 26 24 23 24 20 20 22 21 21 20 20 23 23 20 19 20 18 18 17 16 19 20 21 22 19 17 18 18 16 16 25 24 24 22 24 19
43 43 43 42 42 41 41 42 42 41 34 28 23 22 25 25 24 21 21 20 21 23 23 18 19 20 23 20 19 18 20 20 20 21 21 21 17 18 14 11 14 16 22 23 24 25 23
43 43 42 42 41 40 40 41 42 39 34 31 31 28 22 23 22 18 19 21 23 25 24 24 23 24 21 21 23 24 25 25 24 24 23 21 20 17 10 12 15 14 24 25 24 26 25
43 42 42 42 41 41 42 42 41 40 34 32 31 25 19 20 20 19 22 22 22 24 23 25 26 23 23 28 27 25 25 25 26 25 26 22 21 18 13 11 9 20 25 30 24 25 28
42 42 42 42 42 42 42 42 41 40 37 32 32 25 20 19 21 22 22 22 24 25 24 24 24 25 29 24 19 17 17 16 18 22 22 23 21 17 13 11 11 18 23 26 23 22 26
42 42 42 42 42 42 42 41 41 39 37 34 34 30 23 20 18 23 23 24 22 23 21 23 27 29 26 22 19 15 15 17 15 17 22 22 18 17 17 11 10 19 24 27 32 17 27
43 42 42 41 42 42 42 41 41 40 38 36 36 32 24 20 23 25 19 21 26 25 22 24 26 25 24 18 17 16 14 21 15 17 18 19 20 17 15 15 17 22 26 26 13 19 27
42 42 41 40 40 40 41 41 40 39 38 35 35 36 27 25 26 27 27 26 27 25 22 25 19 23 23 16 17 17 17 20 19 20 20 20 17 17 17 10 10 25 25 21 26 30 23
40 40 39 39 38 38 38 38 39 39 37 35 34 36 35 26 25 30 30 29 26 28 28 28 24 24 26 18 18 20 19 20 20 12 20 16 23 21 19 13 20 28 31 31 30 31 23
Wind_Speed
29 27 26 26 24 21 19 18 17 16 15 12 13 12 11 9 7 5 3 4 4 5 5 5 5 6 2 1 9 15 22 18 12 11 6 10 12 14 19 11 10 27 33 32 31 26 25
29 29 27 24 24 22 20 18 17 15 15 17 15 14 12 9 7 4 3 3 3 3 2 2 3 3 3 10 4 16 15 9 9 8 7 6 7 11 20 23 22 17 27 33 32 27 24
31 29 29 26 23 23 21 20 20 19 18 17 15 14 11 8 6 2 2 4 4 5 5 0 2 2 1 12 7 14 7 8 4 8 9 10 10 7 12 14 16 28 37 40 43 31 30
31 30 27 28 25 23 22 22 21 20 20 17 15 13 10 6 3 2 3 5 5 9 6 2 3 3 5 5 12 8 12 9 12 13 8 9 7 12 15 16 27 29 25 31 33 22 15
34 31 28 26 25 23 23 23 23 22 21 19 15 13 9 5 2 3 4 5 2 6 6 9 6 3 1 9 6 10 7 8 12 11 8 11 9 7 8 15 25 19 33 36 51 27 31
35 34 28 27 27 28 27 26 24 23 22 19 17 12 9 5 3 1 2 7 10 5 8 4 2 3 5 6 6 9 9 4 4 9 7 7 2 5 9 11 29 29 22 30 37 30 22
36 33 31 28 30 30 30 29 26 23 20 17 16 13 7 3 1 4 12 7 1 2 12 4 2 2 4 10 6 8 11 7 6 3 9 4 4 11 17 21 31 34 35 39 41 38 32
34 34 34 35 35 34 33 29 27 23 20 16 13 11 7 7 11 11 8 6 3 4 7 4 1 3 5 3 4 13 14 9 4 9 6 7 13 14 16 20 23 24 28 37 33 34 34
36 36 37 38 38 35 33 31 26 22 20 17 13 11 10 10 13 12 11 7 4 4 6 4 1 3 7 2 3 15 11 10 6 6 11 13 17 22 23 22 25 29 27 30 37 38 37
39 40 39 40 39 36 34 30 27 23 20 16 12 11 13 9 5 4 5 2 4 3 6 8 5 5 11 7 5 8 11 2 4 10 11 10 7 16 22 27 27 32 27 34 32 31 34
42 42 41 39 38 36 32 29 26 24 21 16 13 14 13 4 13 6 3 5 6 2 4 8 4 2 12 7 9 7 18 3 8 15 6 12 21 21 24 24 27 32 30 31 32 35 31
46 44 42 41 37 33 32 30 25 22 21 18 15 17 14 7 7 5 7 9 3 4 2 4 3 10 10 5 13 8 6 7 5 5 12 26 24 20 24 28 28 26 28 33 34 29 27
46 44 41 41 36 33 31 29 28 22 22 20 17 12 7 3 6 5 9 3 5 5 3 5 5 10 7 9 11 14 15 16 8 15 26 26 17 16 9 21 17 7 18 14 7 6 22
45 43 41 39 35 33 34 29 25 23 21 22 20 13 11 5 6 8 4 4 6 3 3 2 4 8 7 11 5 13 17 13 6 13 19 15 32 11 24 19 15 23 13 10 8 18 36
46 43 40 40 39 37 32 27 24 23 22 25 19 6 5 9 6 4 6 11 4 4 1 5 7 3 4 11 6 9 10 4 3 7 14 10 13 24 14 23 9 7 17 22 12 23 16
44 40 40 39 38 33 31 27 23 22 22 17 11 7 5 11 7 5 8 7 4 3 2 2 1 2 3 9 9 11 5 3 9 3 7 7 18 11 23 9 5 9 21 8 7 8 5
43 40 37 33 33 30 29 27 22 22 21 13 7 7 4 10 4 12 9 5 4 2 2 3 2 2 4 5 13 7 4 9 1 18 18 16 7 16 17 7 17 20 13 6 7 8 5
44 38 36 36 30 28 27 27 23 24 17 8 6 7 6 5 8 5 6 8 4 2 2 1 2 5 3 6 9 6 5 7 14 14 18 4 6 16 27 18 6 17 13 17 7 8 3
42 39 35 33 29 26 25 25 23 25 12 9 6 4 3 3 8 7 5 5 3 2 2 3 1 1 1 2 6 4 6 8 16 16 7 7 5 16 20 8 9 11 29 28 24 12 6
40 38 34 31 28 25 22 21 22 21 10 8 7 6 5 7 3 11 10 5 4 2 3 1 1 1 5 4 3 6 9 10 19 14 13 5 5 7 11 19 21 20 32 36 27 10 22
36 34 32 29 25 23 20 20 21 16 9 7 4 4 2 8 6 9 5 5 5 4 2 1 1 1 5 5 7 2 12 19 9 6 5 7 6 6 16 21 14 14 32 38 36 30 23
35 32 30 27 24 22 20 19 19 16 9 7 7 8 5 7 10 11 2 3 5 3 2 1 1 7 3 4 6 14 14 6 5 9 11 5 4 9 7 9 6 26 32 30 38 30 28
34 32 29 26 23 20 18 18 19 15 6 5 3 3 10 2 7 7 6 5 5 1 3 5 4 7 5 5 8 17 17 18 19 12 8 7 7 8 8 24 6 12 27 21 25 32 21
33 31 28 26 23 20 18 16 14 13 6 6 4 7 9 8 5 6 9 5 4 2 1 3 4 3 2 13 14 4 5 9 8 8 13 7 10 4 8 14 9 3 21 10 27 26 27
31 30 27 25 23 21 19 17 15 12 10 13 5 5 7 10 8 8 10 8 2 0 1 3 3 2 10 5 5 4 5 4 3 4 7 8 4 5 6 8 3 9 20 9 9 18 22
30 28 26 24 22 20 19 19 19 19 18 12 7 4 7 16 9 7 8 7 4 2 2 3 3 5 7 4 4 4 5 4 6 13 2 4 3 3 4 4 8 12 24 16 3 17 18
28 27 25 24 22 20 20 19 17 16 14 9 7 4 6 9 4 6 5 7 6 4 1 3 5 7 6 5 5 4 2 2 5 8 8 8 6 8 7 3 3 12 22 6 9 7 14
27 26 25 23 21 20 20 19 17 14 10 7 5 6 4 6 3 3 5 8 6 4 2 1 1 4 5 5 2 0 1 3 3 4 5 5 5 4 4 4 5 13 10 6 3 6 8
27 25 24 22 21 20 18 16 16 14 11 6 5 2 5 9 5 2 2 5 5 8 4 1 3 2 3 5 1 1 1 1 1 3 2 2 0 2 3 2 5 7 6 8 7 6 5
Wind_Direction
198 190 189 185 187 191 194 193 194 193 185 188 167 146 135 127 120 99 56 48 36 19 26 23 20 335 81 184 247 355 353 348 1 354 293 280 264 260 253 249 258 247 258 265 272 272 272
197 191 185 187 182 185 191 187 186 183 173 159 149 137 135 127 114 88 17 340 359 357 352 23 355 310 122 266 6 355 348 345 354 330 306 299 271 271 275 264 253 272 279 277 270 271 274
192 194 181 178 181 181 184 183 174 168 154 142 143 138 131 124 115 118 283 313 318 289 275 290 229 156 141 262 336 323 341 328 303 327 310 305 277 275 327 292 282 272 272 271 268 270 261
190 187 183 175 180 179 178 169 159 150 140 141 137 128 123 126 150 234 286 293 307 291 285 237 204 134 235 244 300 327 337 350 330 315 279 260 280 271 257 283 284 285 287 282 271 271 256
186 182 179 174 173 168 160 152 144 143 142 139 135 129 132 145 221 288 298 316 41 55 89 132 110 189 267 315 6 330 354 342 318 327 334 293 285 252 264 269 278 252 261 261 280 263 268
183 179 172 173 166 155 150 145 143 143 143 144 136 140 141 156 234 292 4 102 95 86 85 94 103 145 13 328 317 328 331 344 347 329 346 22 352 266 276 267 261 273 272 277 271 287 318
181 178 161 168 154 148 146 144 141 142 144 145 140 141 147 133 271 101 114 91 136 193 50 64 274 99 312 315 303 10 346 339 354 19 355 324 267 259 269 257 262 274 279 276 276 276 283
180 162 167 159 149 148 148 148 145 145 144 145 138 140 144 117 81 101 82 97 122 126 94 24 53 295 273 307 325 3 12 19 326 329 315 319 290 273 274 283 274 270 277 276 283 282 273
169 164 161 152 147 148 148 148 145 144 147 139 152 147 140 140 94 63 94 105 145 91 88 36 331 317 348 358 353 338 5 334 301 301 318 290 276 286 285 282 277 263 259 281 276 285 286
162 156 154 148 147 149 148 147 147 148 144 144 145 143 145 158 77 161 67 55 108 93 97 353 10 24 343 333 18 332 341 304 316 313 319 287 287 303 294 284 271 273 270 274 274 276 278
153 150 148 146 146 148 146 146 147 145 144 141 128 128 153 214 148 69 120 122 111 66 265 342 22 36 344 62 319 328 325 334 308 313 300 297 306 309 298 278 282 273 281 279 280 274 278
150 148 148 144 146 145 144 143 142 146 142 141 132 120 131 94 58 99 115 114 75 88 181 5 37 342 1 1 336 312 336 3 305 324 313 297 297 283 271 283 283 278 282 283 273 259 259
143 145 146 143 143 145 142 146 146 152 142 131 118 104 74 78 102 105 134 78 93 92 275 10 342 338 335 354 350 351 344 2 19 351 342 326 326 310 300 315 324 301 304 293 278 230 258
142 142 143 138 143 145 146 150 148 148 140 122 107 88 68 67 69 137 86 85 85 245 31 358 341 338 356 4 346 329 348 360 29 21 331 342 318 343 326 310 289 289 265 254 302 293 297
141 142 142 144 146 150 147 148 146 141 139 123 106 74 55 14 22 87 100 62 120 184 77 1 344 11 334 350 356 347 336 312 312 33 4 320 295 311 325 317 302 323 303 308 273 273 276
138 142 142 147 148 148 145 142 148 146 137 125 109 92 37 343 24 81 79 108 123 155 88 108 58 3 337 340 342 339 314 270 331 321 355 300 292 305 335 342 121 335 295 332 299 294 306
135 138 141 148 144 146 143 147 151 149 142 131 79 80 336 355 74 63 92 102 123 225 197 157 180 300 267 336 325 318 284 302 312 335 331 302 269 303 333 344 305 348 325 299 264 245 285
133 141 151 141 144 147 147 146 152 147 138 72 82 100 331 13 60 56 88 131 143 113 44 91 184 231 251 344 301 304 295 298 305 330 328 331 292 313 312 299 247 343 302 298 264 277 273
137 140 142 141 149 150 147 147 148 152 149 112 89 98 339 48 114 100 108 95 102 126 151 142 135 129 292 322 313 305 309 293 310 330 331 327 339 324 341 0 318 344 344 340 327 283 314
136 142 142 145 147 145 142 145 147 152 122 89 124 119 30 56 57 115 114 89 121 61 84 59 258 303 338 315 274 290 305 313 317 304 308 14 275 258 280 281 304 312 359 4 9 357 50
136 139 139 138 135 130 131 142 148 146 127 101 53 108 152 134 98 116 115 130 128 113 87 265 178 54 11 315 321 267 317 327 329 319 8 338 276 279 279 289 329 349 8 14 22 25 58
136 134 132 128 128 128 128 133 146 146 117 83 127 139 69 88 116 118 58 147 112 105 150 163 212 320 277 240 244 296 317 330 302 331 345 359 281 314 306 340 313 21 11 23 25 23 42
129 127 123 119 119 122 128 135 141 147 116 116 150 84 103 107 145 140 162 160 119 108 202 240 297 318 298 274 285 279 269 263 264 295 309 322 319 331 312 338 93 8 2 25 34 25 23
119 117 118 120 123 123 121 127 153 169 133 125 144 109 103 144 148 134 143 117 143 181 255 276 295 265 276 323 302 264 248 246 238 255 238 295 326 325 299 346 55 141 11 25 56 28 19
118 119 120 119 118 115 110 107 111 136 143 107 112 122 125 130 146 135 140 121 122 273 200 272 279 276 329 335 20 19 360 6 341 34 31 218 316 320 342 344 315 14 358 356 53 37 17
119 119 121 119 115 104 95 94 92 94 99 88 74 102 110 127 205 137 130 120 137 97 33 277 302 347 14 52 53 52 36 330 335 345 50 110 37 50 4 25 8 353 338 341 315 41 3
120 119 117 112 105 102 95 90 86 83 78 94 65 53 93 102 180 136 127 138 133 105 145 307 342 4 21 43 54 49 42 322 348 340 338 357 354 19 13 32 295 332 342 340 55 352 339
117 115 113 112 107 100 95 91 91 90 83 86 91 23 99 90 124 186 137 131 119 128 132 235 104 29 40 62 70 144 325 353 312 289 332 3 355 354 347 7 355 1 355 47 296 316 355
115 114 111 109 106 103 101 98 94 90 90 108 104 44 72 93 134 211 182 159 134 154 137 69 110 126 150 91 183 230 271 268 267 328 273 1 184 290 225 282 260 299 274 298 290 312 354